Volver al catálogo

FLOCK 4G 5

ActivoCienciaSSO
NORAD 62663·PAYLOAD·🇺🇸 United States

Lanzado Jan 14, 2025 desde Vandenberg Space Force Base

Loading…

Próximos Pases (próximas 24 horas)

TLE

ActualizadoSource: Space-Track

Época: Sep 13, 2026, 23:15 UTC

1 62663U 25009BG  26256.96914986  .00007370  00000-0  24242-3 0  9996
2 62663  97.3981 339.1649 0003124  18.5818 341.5537 15.31815908 92525

Sigue FLOCK 4G 5 en tiempo real con AllMySat

Download on the App Store